Dewpoint
32 33 33 35 36 36 34 33 31 25 25 29 28 30 30 29 29 30 29 29 29 31 31 30 33 31 32 32 33 33 34 35 36 36 37 40 38 41
32 32 33 34 34 34 32 32 32 29 26 28 28 28 28 27 28 28 28 28 28 29 31 32 32 31 31 31 32 33 34 34 35 36 37 38 38 39
32 33 33 35 31 33 31 30 31 30 27 26 27 28 28 28 28 29 29 28 27 29 31 32 32 32 31 32 33 34 35 35 34 35 38 36 37 37
30 31 32 30 30 32 31 30 30 27 27 27 27 27 27 28 28 28 29 28 29 29 30 31 31 31 31 31 33 33 34 33 34 36 38 38 38 39
30 30 30 30 30 31 29 29 29 29 28 27 26 27 27 27 27 28 28 28 28 28 28 29 30 30 30 31 32 33 32 34 37 37 37 37 37 37
29 30 30 30 30 29 29 29 29 29 28 26 25 26 27 27 27 27 28 29 28 28 28 29 30 30 30 30 31 32 32 35 36 36 36 36 35 33
29 29 28 29 28 29 30 29 29 28 27 26 26 26 26 26 28 29 29 28 28 28 28 30 29 30 31 29 30 32 33 34 35 36 34 33 33 32
27 28 28 28 28 29 29 30 30 28 27 27 28 26 26 26 27 29 29 27 25 29 28 29 31 31 30 30 31 33 33 34 34 34 32 32 31 30
27 27 27 27 28 28 29 28 28 28 29 29 28 27 28 30 31 30 29 29 28 29 30 29 30 29 30 31 32 33 33 34 34 33 32 32 31 30
27 27 27 27 27 29 29 28 28 28 28 29 29 30 30 30 31 31 31 31 31 29 30 27 29 30 30 31 32 32 33 35 34 32 31 31 30 31
27 27 27 27 28 30 30 27 27 27 28 29 29 30 31 32 32 32 30 28 26 26 28 30 28 29 30 31 30 33 34 33 32 31 32 32 31 31
28 27 27 28 29 31 30 29 25 27 28 28 29 30 31 32 32 32 31 28 27 26 28 29 29 30 28 32 31 32 31 31 31 30 31 31 30 30
27 26 27 28 30 30 27 26 26 27 28 28 29 28 28 29 30 31 32 31 28 28 30 31 30 30 30 29 31 31 30 30 30 29 28 29 31 30
26 27 27 29 29 26 27 27 27 28 28 28 26 26 26 28 29 31 32 32 33 31 32 32 29 29 26 25 26 30 30 28 27 26 26 27 27 29
28 28 28 28 27 28 26 26 27 28 28 27 25 26 27 29 30 30 31 31 31 32 33 32 30 29 29 27 27 27 26 26 27 26 26 26 27 28
28 27 26 26 27 27 27 27 27 27 27 27 25 26 28 28 30 31 30 30 30 29 33 32 31 30 28 28 26 24 25 23 26 26 26 26 27 28
26 26 25 25 25 26 27 26 26 26 26 26 26 25 26 27 29 30 30 30 29 29 29 31 31 30 28 28 24 25 24 23 25 25 24 24 26 28
25 24 25 26 25 25 27 27 26 26 26 26 26 26 25 27 28 29 31 29 28 27 28 30 28 26 27 26 29 24 24 24 25 25 24 22 23 27
24 24 24 26 26 27 27 27 27 27 27 26 26 27 27 28 28 29 29 26 26 26 26 26 25 23 20 19 25 29 25 25 25 24 24 24 23 25
23 25 26 26 27 27 27 27 27 28 26 26 27 26 27 28 28 29 27 26 25 23 23 24 24 23 21 21 21 24 29 25 25 24 24 25 26 28
25 26 26 27 27 27 28 28 28 28 27 26 26 26 27 28 28 30 27 25 24 23 23 23 25 24 23 22 19 21 24 29 27 25 26 24 22 23
25 27 27 28 28 28 28 28 28 27 26 26 25 25 26 28 29 29 27 26 24 25 23 24 24 23 21 20 20 20 22 24 26 27 27 26 22 19
27 27 28 28 28 28 28 28 27 27 26 26 25 25 26 27 30 30 29 28 26 24 23 22 22 22 21 21 20 20 21 22 22 23 25 28 28 28
Wind_Speed
13 13 10 8 9 9 9 9 9 14 19 3 13 15 16 16 18 20 19 23 28 26 27 29 29 30 30 28 26 28 29 29 28 28 28 25 27 26
10 12 11 8 11 9 10 10 7 11 11 15 18 20 20 20 19 19 17 26 25 26 25 28 29 31 29 28 27 26 26 25 26 25 26 25 26 27
12 13 12 11 12 10 11 11 10 10 18 20 20 19 21 23 21 21 19 18 18 25 28 27 29 29 28 28 27 27 26 26 26 27 23 25 26 28
14 13 13 12 14 12 12 14 11 14 18 26 23 21 20 20 22 23 20 17 19 21 28 28 28 26 27 27 27 27 28 26 27 28 21 23 25 25
12 12 12 12 13 12 14 13 13 14 15 20 24 19 19 20 20 18 18 20 19 25 25 24 23 27 28 27 25 25 26 26 27 22 22 22 23 22
11 11 11 12 14 15 16 15 16 17 17 18 20 21 20 19 19 21 22 18 22 21 19 19 23 26 26 25 25 25 25 27 24 24 23 21 20 21
11 11 11 15 17 18 16 18 18 18 18 18 18 22 22 23 22 19 22 23 19 18 18 19 19 19 17 21 20 22 24 24 24 23 24 22 20 20
15 14 13 14 16 20 20 21 21 19 20 18 20 23 24 25 24 22 22 23 18 13 22 22 17 18 18 17 24 23 20 18 22 23 22 20 19 19
12 14 14 14 16 15 17 21 18 20 20 20 22 23 26 23 24 24 22 22 23 23 20 21 17 18 17 17 23 18 17 18 20 20 19 18 18 18
12 13 14 16 17 18 19 18 17 17 16 18 20 22 23 24 21 21 24 23 19 19 14 19 17 16 17 18 17 13 16 18 18 18 18 18 18 17
13 13 15 16 19 25 20 19 19 17 19 23 24 28 28 29 26 21 19 22 23 22 15 10 14 18 15 15 11 12 12 15 17 16 18 18 17 16
14 15 17 19 24 24 19 17 19 21 22 22 20 19 20 20 22 16 19 21 21 18 6 13 18 10 8 1 10 9 10 14 15 17 18 18 18 12
13 15 15 22 24 23 21 15 20 22 20 19 19 18 17 17 16 16 16 17 19 19 20 13 10 15 8 13 7 6 10 12 12 13 17 18 17 15
15 14 15 21 22 20 18 21 24 19 16 18 19 19 20 20 19 19 19 19 17 19 22 18 9 12 8 7 5 6 8 13 11 13 14 15 15 20
13 15 20 19 20 16 18 21 17 15 17 17 20 19 20 19 20 18 17 18 17 17 14 7 6 12 11 9 8 9 6 10 14 14 14 15 15 13
13 13 16 15 16 17 15 14 14 14 17 17 19 20 17 19 18 16 18 18 17 12 9 7 7 12 10 12 11 11 14 9 13 14 13 14 17 17
14 11 12 15 16 16 15 15 15 16 16 17 17 20 19 20 17 18 15 17 14 14 13 10 9 10 18 14 10 13 13 11 14 15 13 18 20 19
11 13 14 14 16 17 17 17 15 18 17 17 18 19 19 18 19 18 14 14 14 14 14 12 11 6 7 11 22 13 12 11 13 14 15 16 21 21
10 12 15 14 16 16 16 16 18 17 17 17 17 18 18 16 19 16 14 14 13 12 13 13 11 9 11 12 9 24 10 12 11 15 14 13 15 19
10 12 13 14 15 16 16 17 17 17 16 17 17 18 17 16 16 15 13 13 12 12 12 14 15 14 11 8 5 12 26 12 10 12 13 12 9 17
11 11 13 14 14 15 16 16 17 16 16 17 17 17 17 15 14 11 10 12 11 9 11 12 12 8 6 3 9 14 13 23 23 12 5 9 10 13
10 10 12 13 14 15 15 15 16 16 16 15 17 16 17 15 12 10 7 8 8 8 8 9 11 11 11 10 12 11 12 13 18 29 31 24 5 7
9 10 12 13 13 14 15 15 16 15 15 15 15 16 16 16 13 9 6 4 5 7 8 10 11 11 12 11 11 12 15 15 13 17 21 24 25 25
Wind_Direction
18 14 4 345 2 5 3 353 346 326 325 341 336 333 322 320 319 321 319 317 324 313 316 319 318 322 322 321 318 319 319 317 314 307 300 302 304 306
10 6 360 353 360 350 351 334 324 313 304 328 321 319 319 316 316 319 309 317 313 314 316 317 318 322 321 320 319 319 320 320 317 314 304 304 307 306
14 8 1 354 343 339 341 326 315 316 308 308 309 315 317 317 320 319 314 312 314 317 319 320 320 318 319 322 321 318 319 320 320 318 309 310 310 310
8 2 352 348 338 329 326 316 305 318 318 311 314 317 317 318 315 315 317 316 315 315 323 315 316 320 324 321 316 318 320 318 317 316 311 311 309 308
0 349 337 334 326 323 327 321 317 313 314 308 310 318 319 322 318 314 318 321 321 321 320 318 317 318 319 318 317 318 322 323 323 319 318 312 311 312
350 339 334 332 324 337 329 323 320 320 317 317 317 317 321 324 321 322 323 320 321 319 319 318 312 312 317 321 318 317 320 321 324 325 324 321 319 316
344 344 343 338 339 331 326 322 322 322 322 321 317 319 323 326 326 322 315 320 318 312 320 318 311 310 309 319 311 304 315 321 324 324 326 324 324 323
346 339 335 335 330 322 320 320 322 321 319 318 313 315 319 321 320 318 316 320 322 317 318 310 306 302 305 314 310 317 320 322 325 325 324 324 322 322
333 327 328 326 319 314 321 324 320 320 316 307 306 310 310 314 312 314 314 312 310 306 306 307 303 303 306 310 312 319 323 319 324 327 327 327 326 326
327 319 319 315 318 322 328 327 326 323 318 316 315 312 303 303 304 305 305 300 299 297 302 301 308 303 308 304 304 305 320 327 333 335 337 337 336 336
331 324 325 323 320 331 336 334 332 330 330 325 311 300 302 303 302 313 318 317 316 317 311 296 311 314 296 290 304 308 331 342 343 343 345 346 351 340
335 324 325 327 329 336 341 337 335 332 326 318 312 307 304 305 306 314 314 315 315 320 309 319 313 322 311 293 312 344 353 351 348 353 351 349 353 351
325 326 328 326 333 340 342 336 331 329 320 317 320 322 324 324 324 320 309 305 307 304 306 316 306 314 300 315 330 23 12 359 354 355 357 356 1 8
320 318 321 329 337 337 336 329 336 328 324 327 331 335 335 328 325 318 310 304 296 291 296 305 301 331 319 305 321 335 31 13 2 356 356 354 359 8
316 316 326 334 327 324 334 343 338 332 329 331 335 331 324 316 316 320 316 313 310 300 305 345 1 333 329 311 316 2 352 12 1 2 356 4 6 4
331 327 325 332 317 315 325 341 342 334 330 331 331 326 323 332 326 326 323 326 323 328 358 2 353 1 1 22 32 29 22 26 353 358 356 16 15 14
334 332 335 344 342 338 333 340 341 341 337 336 330 331 335 334 333 332 330 332 338 349 350 347 10 72 51 32 29 27 25 23 9 2 13 29 25 18
335 342 332 323 336 338 333 335 338 340 339 334 332 334 334 333 332 331 334 345 355 360 2 7 13 35 27 43 38 24 26 15 5 11 21 36 34 22
344 338 336 330 331 329 329 332 331 332 335 337 332 331 327 332 334 333 359 0 3 7 10 7 18 43 56 49 17 23 16 8 7 29 29 38 37 33
342 329 326 327 324 325 327 330 326 326 337 332 331 328 327 332 334 344 13 358 7 24 30 30 34 37 58 49 36 22 31 23 14 31 28 33 36 31
327 322 323 316 321 324 323 322 322 322 331 329 334 328 326 328 339 356 9 8 25 26 31 30 16 23 35 26 50 36 29 34 47 37 360 32 39 36
319 319 318 315 318 320 320 321 322 326 330 333 332 326 322 323 332 347 16 9 22 33 46 35 27 40 52 60 59 43 33 25 41 54 55 57 42 55
323 318 314 312 316 316 317 321 321 325 326 328 326 323 319 323 327 337 354 43 42 57 58 59 50 57 53 52 57 47 37 31 40 54 52 48 59 64